Regional Weather Roundup
Issued by NWS

Home | Current Version | Previous Version | Text Only | Print | Product List | Glossary Off
Versions: 1 2 3 4 5 6 7 8 9 10 11 12 13 14 15 16 17 18 19 20 21 22 23 24 25 26 27

000
ASUS43 KDMX 182107
RWRIA

WEATHER ROUNDUP FOR IOWA
NATIONAL WEATHER SERVICE DES MOINES IA
400 PM CDT FRI APR 18 2014

NOTE: "FAIR" INDICATES FEW OR NO CLOUDS BELOW 12,000 FEET WITH NO
SIGNIFICANT WEATHER AND/OR OBSTRUCTIONS TO VISIBILITY.

* - THESE STATIONS ARE NOT NWS STATIONS...THUS NOT UNDER NWS
QUALITY CONTROL.  THEY ALSO DO NOT REPORT WEATHER SUCH
AS PRECIPITATION OR FOG.

IAZ001>003-012>014-020>022-031>034-043>046-182200-
   NORTHWEST IOWA

CITY           SKY/WX    TMP DP  RH WIND       PRES   REMARKS
CARROLL *      SUNNY     64  30  27 SE14G25   30.18F
CHEROKEE *     SUNNY     66  32  28 S23       30.13F
DENISON *      SUNNY     64  32  29 S16G24    30.14F
LE MARS *      SUNNY     66  36  32 SE24      30.09F
ORANGE CITY *  SUNNY     66  28  24 S17G26    30.09F
SHELDON *      SUNNY     64  34  32 S24G33    30.10F
SIOUX CITY     SUNNY     68  36  30 S24G35    30.10F
SPENCER        SUNNY     63  33  32 SE24G35   30.15F
STORM LAKE *   SUNNY     63  30  29 S22G28    30.15F
$$

IAZ055>058-069>071-079>083-090>094-182200-
   SOUTHWEST IOWA

CITY           SKY/WX    TMP DP  RH WIND       PRES   REMARKS
ATLANTIC *     SUNNY     64  30  27 S16G23    30.17F
AUDUBON *      SUNNY     66  18  15 SE12G21   30.19F
CLARINDA *     SUNNY     66  36  32 S14G22    30.19F
COUNCIL BLFS * SUNNY     66  39  37 S20G28    30.13F
CRESTON *      SUNNY     63  34  34 S13G22    30.20F
HARLAN  *      SUNNY     64  30  27 S14G23    30.19F
LAMONI         SUNNY     64  34  32 SE12      30.22F
RED OAK *      SUNNY     66  36  32 S15G21    30.17F
SHENANDOAH *   SUNNY     68  36  30 S16G24    30.17F
$$

IAZ047>049-059>061-072>074-084-182200-
   CENTRAL IOWA

CITY           SKY/WX    TMP DP  RH WIND       PRES   REMARKS
AMES           SUNNY     60  30  32 SE9G21    30.24F
ANKENY *       SUNNY     63  34  34 SE14G21   30.23F
CHARITON *     SUNNY     63  34  34 SE9G15    30.23F
DES MOINES     MOSUNNY   65  32  29 SE10G20   30.23F
GRINNELL*      SUNNY     61  30  31 S12       30.26F
KNOXVILLE *    SUNNY     63  32  31 SE9G15    30.23F
MARSHALLTOWN   SUNNY     60  32  34 SE12G22   30.25F
NEWTON *       SUNNY     61  30  31 E9G17     30.25F
PELLA *        SUNNY     63  32  31 SE9       30.26F
PERRY *          N/A     64  27  24 SE17      30.21F
$$

IAZ004>006-015-016-023>025-035-036-182200-
   NORTH CENTRAL IOWA

CITY           SKY/WX    TMP DP  RH WIND       PRES   REMARKS
ALGONA *       SUNNY     61  32  33 S16G24    30.21F
CLARION *      SUNNY     61  30  31 SE16      30.23F
ESTHERVILLE    SUNNY     60  33  36 SE23G32   30.17F
FORT DODGE *   SUNNY     61  34  36 SE12G17   30.22F
MASON CITY     SUNNY     57  31  37 SE15      30.26F
FOREST CITY *  SUNNY     57  32  38 SE15      30.24F
IOWA FALLS *     N/A     59  30  33 SE10G17   30.26F
$$

IAZ007>011-017>019-026>030-037>042-050>054-066-182200-
   NORTHEAST IOWA

CITY           SKY/WX    TMP DP  RH WIND       PRES   REMARKS
CEDAR RAPIDS   SUNNY     61  29  29 NE7       30.27F
CHARLES CITY * SUNNY     55  30  38 E10       30.27F
CLINTON *      SUNNY     59  28  31 E5        30.32F
DECORAH *      SUNNY     54  28  37 VRB7G13   30.29F
DUBUQUE        SUNNY     58  29  33 CALM      30.31F
MONTICELLO *   SUNNY     59  28  31 NE5       30.29F
OELWEIN *      SUNNY    N/A N/A N/A SE12G18   30.29F
WATERLOO       SUNNY     59  28  30 S10       30.27F
$$

IAZ064-065-067-068-078-182200-
   EAST CENTRAL IOWA

CITY           SKY/WX    TMP DP  RH WIND       PRES   REMARKS
DAVENPORT      SUNNY     61  26  26 SW5       30.30F
IOWA CITY      SUNNY     62  32  32 CALM      30.29F
MT. PLEASANT * SUNNY     64  25  22 E3        30.27F
MUSCATINE *    SUNNY     61  28  29 CALM      30.28F
QUAD CITIES    SUNNY     64  30  27 VRB6      30.28F
$$

IAZ062-063-075>077-085>089-095>099-182200-
   SOUTHEAST IOWA

CITY           SKY/WX    TMP DP  RH WIND       PRES   REMARKS
BURLINGTON     SUNNY     62  28  27 CALM      30.27F
FAIRFIELD *    SUNNY     63  28  27 SE7G16    30.27F
FORT MADISON * SUNNY     63  30  29 NE3       30.28F
KEOKUK *       SUNNY     63  30  29 E6        30.26F
OSKALOOSA *      N/A     64  30  27 S10       30.26F
CENTERVILLE *  SUNNY     64  36  34 SE7       30.26F
OTTUMWA        SUNNY     63  30  28 SE9       30.25F
WASHINGTON *   SUNNY     63  27  25 S7        30.27F
$$

ABBREVIATIONS USED IN REMARKS
   TC - TEMPERATURES IN CELSIUS
  WCI - WIND CHILL INDEX
   HX - HEAT INDEX
  VSB - VISIBILITY
$$




USA.gov is the U.S. government's official web portal to all federal, state and local government web resources and services.